Simultaneous Nadir Overpasses (SNOs) Predictions

Prediction of SNOs between METOP-A and NOAA-19 Satellite Orbit:

Table of predicted SNOs for the next 14.0 days since TLE Epoch: 10/2/2015
Index Date (METOP-A) Time (METOP-A) Lat,Lon (METOP-A) SZA (METOP-A ) Date (NOAA-19) Time (NOAA-19) Lat,Lon (NOAA-19) SZA (NOAA-19 ) Distance(km) Time Diff (sec)
1 10/10/2015 01:13:11 75.88, 160.78 82.27 10/10/2015 01:12:03 75.91, 158.03 82.29 74.47 68
2 10/10/2015 02:04:01 -75.48, -33.16 98.13 10/10/2015 02:02:50 -75.49, -33.28 98.13 3.43 71
3 10/10/2015 02:54:42 75.43, 134.03 81.84 10/10/2015 02:53:55 75.43, 134.12 81.84 2.59 47
4 10/10/2015 03:45:23 -75.46, -58.57 98.13 10/10/2015 03:44:51 -75.42, -58.57 98.17 3.82 32
5 10/10/2015 04:36:04 75.41, 108.62 81.84 10/10/2015 04:35:57 75.41, 108.69 81.84 1.72 7
6
